Погода в аэропорте Л.Ф. Уэйде

Бермудские Острова     32°21′35″N   64°42′04″W
темп.,
°C
ветер,
м/с
пор.,
м/с
влажн.,
%
обл.,
%
осадки,
мм/ч
давл.,
гПа
погр.,
м
13 мая, чт
чт1300:00+22ююз7109039 0.9 1020336
03:00+22юз9149099 1.1 1018510
06:00+22юз10159035 0.3 1017630
09:00+22юз101489100 2.1 1018597
12:00+22з81291100 2.7 1018763
15:00+22з71089100 5.2 1017587
18:00+21сз6789100 1.6 1017409
21:00+20ссв4488100 2.1 1018312
14 мая, пт
пт1400:00+20юв2289100 1.0 1017279
03:00+20юз2290100 1.8 1016269
06:00+20зсз3385100 0.2 1016417
09:00+20ссз2378100 0.4 1017411
12:00+21ссз4479100 0.0 1018549
15:00+21св4480100 0.0 1017547
18:00+21св7783100 0.1 1016663
21:00+21всв121284100 0.5 1018897
15 мая, сб
сб1500:00+20всв111182100 0.3 1018769
03:00+20всв111181100 0.6 1017904
06:00+20всв12128284 0.3 1016852
09:00+20всв11128268 0.8 1018846
12:00+20всв11118198 0.3 1018889
15:00+20всв101081100 0.4 1017875
18:00+20всв10108299 0.2 1016785
21:00+20св9108396 1.0 1017822
16 мая, вс
вс1600:00+19св161782100 2.3 10181022
03:00+18ссв131576100 2.9 10181165
06:00+18ссв8881100 0.6 1018860
09:00+19ссв997384 1.1 10201200
12:00+20ссв1096326 0.2 10221426
15:00+19ссв910705 0.4 10221158
18:00+20св10106357 0.1 10221482
21:00+20св99582 0.1 10231560
17 мая, пн
пн1700:00+20св77560 0.0 10241607
03:00+20св66559 0.0 10231637
06:00+20св5553100 0.0 10231684
09:00+20св6664100 0.1 10251163
12:00+20св446386 0.1 10251162
15:00+20всв43625 0.1 10251127
18:00+21в346426 0.1 10241058
21:00+20вюв556721 0.2 1025981